Wind_Speed
43 43 46 49 48 48 48 48 47 46 46 46 45 44 44 44 45 47 45 43 43 39 40 41 35 35 39 42 48 51 50 51 50 49 52 51 49 47 47 46 46 47 47 47 48 49 50 51 53 55 57 57 58 57 56 55 55 56 57 56 56 58 59 60 61 63 64 64 65 67 68 69 69 71 74 77 80 82 84 85 86 88 92 95 98 100
42 42 47 48 46 48 48 48 47 46 46 46 46 45 46 46 45 47 47 44 44 40 39 41 36 35 40 41 47 50 50 53 52 51 55 53 50 48 48 47 47 47 48 49 49 49 50 52 55 57 58 58 58 57 56 56 57 57 57 56 58 59 60 61 63 65 66 66 68 69 70 71 72 75 78 81 83 85 86 87 89 92 96 99 102 104
41 43 47 46 46 48 48 48 48 47 47 47 46 46 46 48 47 46 47 47 45 42 40 40 35 35 39 41 48 49 46 53 55 55 58 56 51 51 49 48 48 48 48 49 50 50 51 53 56 58 58 58 58 58 58 58 58 58 57 58 59 61 62 64 66 67 67 68 70 72 72 74 76 79 82 84 85 87 89 91 93 96 99 102 105 108
42 44 47 46 46 47 47 48 48 48 47 46 47 47 47 50 49 46 47 48 46 44 41 40 34 32 37 40 48 50 44 50 58 60 61 59 55 54 53 51 50 50 50 50 51 52 52 54 57 58 58 58 58 59 59 58 58 58 59 60 61 62 64 67 68 68 70 72 73 74 74 76 79 82 83 85 87 89 92 95 97 100 103 106 109 112
43 46 46 47 47 46 47 48 49 49 47 46 48 49 49 50 50 47 47 47 46 45 44 42 35 29 34 38 45 52 49 49 55 61 64 62 61 60 57 56 54 53 52 52 53 54 54 55 57 58 59 59 59 60 59 59 59 60 60 62 63 65 67 68 70 71 73 74 74 74 76 79 82 83 85 87 90 93 96 99 102 105 108 110 112 115
45 49 47 47 48 47 47 49 51 50 46 45 48 52 51 50 50 49 48 47 46 46 46 46 40 30 31 34 39 48 51 49 52 59 65 65 65 66 63 60 58 55 54 53 54 55 55 56 58 58 60 60 60 60 61 61 61 61 62 64 66 67 69 71 73 74 73 73 74 76 79 81 84 86 89 91 94 97 100 103 105 107 109 111 113 114
46 50 49 48 48 49 49 50 53 52 47 46 49 53 52 51 51 50 49 48 46 46 45 48 47 35 28 31 37 44 48 50 52 55 63 67 68 70 68 64 61 58 55 55 56 56 56 57 58 60 61 60 61 62 62 62 62 63 65 67 69 70 72 74 75 74 73 74 77 79 81 84 87 89 92 95 98 101 103 106 107 108 110 111 112 114
48 51 50 50 49 50 51 53 54 53 50 48 49 53 53 53 52 50 51 50 49 47 43 48 54 40 28 30 38 43 47 52 55 54 60 67 72 74 72 67 64 60 56 56 56 56 56 58 60 61 61 61 63 63 63 63 65 67 69 70 72 74 75 76 76 74 74 77 80 82 85 88 91 94 97 100 103 105 107 108 109 110 111 111 112 113
51 51 52 52 51 52 53 54 54 54 53 50 51 53 53 54 53 52 53 52 52 47 41 48 56 46 33 32 39 44 48 53 57 57 61 68 74 75 73 70 66 61 58 56 56 56 58 60 62 62 62 64 65 65 65 67 69 70 72 73 75 77 78 78 77 76 77 80 83 85 89 92 95 97 101 103 106 108 109 110 110 110 111 111 112 114
53 52 53 53 53 55 55 55 56 56 55 54 54 54 55 56 55 55 54 54 54 47 42 49 56 51 39 33 40 47 49 54 57 59 64 70 74 75 74 71 66 62 59 57 56 57 60 62 63 64 65 67 68 68 68 70 71 73 74 76 77 79 80 79 79 79 81 84 86 89 92 95 98 101 103 106 109 110 111 111 111 111 111 111 112 113
56 54 55 56 57 59 59 59 59 58 58 58 58 57 58 57 56 57 56 57 57 48 46 51 54 54 44 35 42 49 50 54 57 61 68 72 74 75 74 70 66 63 60 58 58 60 63 63 64 66 67 69 69 69 70 72 73 75 76 78 79 81 81 81 81 82 84 87 89 92 95 98 100 103 107 109 111 112 113 112 111 110 110 110 110 111
58 57 58 59 61 61 61 61 60 60 60 60 60 60 61 60 59 59 57 60 59 50 49 53 54 54 46 41 48 52 52 55 57 64 70 71 73 75 73 68 64 63 62 59 60 62 64 65 66 67 69 70 70 71 72 74 75 77 78 80 82 83 84 85 85 86 88 90 91 94 97 100 104 107 110 112 113 114 113 112 110 109 108 107 108 109
60 60 61 63 64 64 63 63 62 62 61 62 62 63 65 64 64 63 61 62 60 53 53 55 55 53 46 45 52 53 54 55 57 65 70 70 73 75 70 65 63 64 62 61 62 64 65 66 67 69 70 71 72 74 75 76 78 79 81 83 84 86 87 88 88 88 90 91 93 96 100 104 107 111 113 115 115 114 112 110 108 106 105 104 105 106
62 61 62 66 66 65 65 66 65 64 64 64 65 67 68 68 70 68 65 65 61 57 57 57 57 53 47 48 50 50 54 55 57 66 69 69 73 74 68 64 64 65 63 63 65 66 66 68 69 71 72 74 75 77 79 79 80 82 84 85 87 88 88 88 88 89 91 93 96 100 104 108 111 114 116 115 114 112 110 108 105 103 102 101 101 102
64 59 60 66 66 64 66 68 68 67 67 66 68 70 69 70 75 74 69 67 64 60 57 57 56 49 45 46 43 45 53 54 56 64 67 69 73 73 67 65 67 67 66 66 67 67 69 71 72 74 75 76 78 79 80 81 82 83 85 86 87 87 87 87 88 90 93 96 100 104 108 112 114 116 115 114 112 110 108 105 102 101 99 99 99 99
67 59 57 63 64 64 66 67 68 69 68 68 69 70 70 71 75 75 71 68 67 64 56 54 53 45 43 43 39 45 53 53 57 64 66 69 72 71 68 68 70 69 67 68 68 70 72 73 75 76 77 78 79 80 80 81 83 84 86 86 87 86 87 88 90 93 96 100 105 108 111 114 115 115 113 111 110 107 105 102 99 98 97 97 96 95
71 65 60 62 63 64 67 67 68 69 69 69 68 68 69 71 72 74 73 69 69 68 58 54 53 46 41 40 39 47 55 54 58 64 65 69 73 72 71 72 72 70 70 70 71 73 75 76 77 78 79 79 80 81 81 82 84 84 85 86 86 87 88 91 94 97 101 105 109 112 113 114 114 113 111 109 107 104 101 99 96 95 95 95 94 93
77 74 67 65 66 66 68 69 67 67 69 71 70 69 70 72 72 74 76 74 73 74 65 57 55 48 41 41 42 50 55 56 60 63 65 71 75 75 74 73 73 72 72 73 74 75 76 77 79 79 80 80 81 81 81 82 83 84 85 86 88 90 92 95 99 103 106 109 111 113 113 112 112 110 109 106 104 101 98 95 94 93 93 93 92 91
82 82 74 69 70 71 70 69 66 66 70 72 71 71 72 74 75 76 79 79 78 80 74 63 57 50 45 46 48 52 58 61 63 64 65 71 76 76 75 74 74 73 73 74 75 76 77 78 80 80 80 81 81 81 81 82 83 85 87 90 92 95 97 101 104 106 109 111 112 112 111 111 109 108 106 104 101 98 95 93 92 91 92 92 91 89
86 88 82 76 75 75 71 68 68 69 71 73 73 73 73 75 77 78 80 81 81 84 82 72 64 52 46 50 53 57 63 66 66 64 66 73 78 77 76 75 74 73 74 76 77 77 78 79 81 81 80 81 81 82 83 84 87 89 92 95 96 99 102 104 107 108 111 112 112 111 109 108 107 105 103 101 98 95 92 91 90 91 91 91 90 88
88 91 88 83 80 76 72 70 71 71 72 75 76 76 76 77 81 81 80 80 81 84 83 80 73 54 45 53 58 61 67 69 68 66 67 76 80 78 77 75 73 74 76 78 78 78 79 80 81 81 81 82 83 84 87 89 92 95 97 98 100 102 104 106 109 111 112 112 110 109 108 106 104 102 100 98 95 93 91 90 90 91 91 90 89 87
89 92 92 89 82 76 71 70 71 71 73 76 78 79 80 82 85 85 84 80 81 85 82 83 81 59 47 56 62 64 70 70 70 69 69 77 80 78 77 74 73 76 77 78 78 78 80 80 81 82 82 85 87 90 92 94 96 98 99 101 102 104 107 109 111 112 111 110 109 107 106 104 101 99 97 95 93 91 90 90 91 91 91 90 89 87
91 95 95 92 85 78 71 69 69 70 72 75 77 79 82 84 85 87 89 85 84 86 81 85 85 61 47 61 69 67 69 70 72 71 70 76 78 77 76 74 75 78 78 78 79 80 81 82 83 84 86 89 92 95 97 99 101 102 102 104 105 107 109 110 111 110 109 108 107 106 103 100 98 96 94 93 91 89 89 90 91 91 91 89 88 86
93 96 95 93 88 80 73 68 67 68 72 75 76 78 80 81 83 87 89 86 86 85 81 87 87 61 49 64 70 65 67 70 73 72 71 74 76 76 77 77 79 80 79 80 81 82 84 84 86 88 90 94 97 100 102 103 104 105 105 107 108 109 109 109 109 109 108 107 105 103 100 96 94 93 92 91 89 89 90 91 92 92 91 89 87 86
95 96 96 95 89 80 72 67 67 70 75 77 75 76 78 80 83 85 86 87 88 84 83 91 89 69 61 68 67 65 71 75 76 75 73 74 75 78 81 82 82 82 81 82 84 85 86 88 90 92 95 99 102 104 105 106 107 107 108 109 109 108 108 108 108 107 106 105 103 100 96 94 92 91 90 89 89 90 91 92 93 92 91 89 87 86
97 98 97 95 89 81 72 67 69 74 78 77 75 77 80 82 85 87 88 90 89 86 88 93 90 81 76 73 67 71 80 83 81 78 76 75 79 83 87 86 84 83 83 85 87 89 91 93 95 97 100 103 105 106 107 108 109 109 109 109 108 108 107 107 107 105 104 102 99 96 94 92 91 90 89 89 89 91 92 93 93 93 91 89 87 86
99 98 94 92 89 84 77 72 75 82 85 84 83 83 84 85 88 91 91 88 88 92 97 95 91 90 84 72 67 76 89 90 82 78 79 81 85 89 91 88 86 86 88 91 94 96 97 98 99 101 104 106 108 108 109 109 109 109 109 108 108 107 107 106 105 102 100 97 95 94 92 91 91 90 89 89 90 92 93 94 94 93 91 89 87 86
98 96 91 89 89 89 86 84 88 94 97 95 93 92 91 91 93 94 91 87 92 101 103 95 91 94 87 74 72 83 93 90 81 80 85 89 90 92 91 89 89 92 95 98 100 100 100 101 102 105 108 109 110 110 109 109 109 108 108 108 108 107 105 103 101 97 95 94 93 92 91 91 90 89 89 90 91 92 93 94 94 93 91 89 88 87
100 99 94 94 96 97 96 96 99 104 105 103 102 99 95 94 95 95 91 90 97 106 105 97 95 96 89 80 83 92 94 88 85 88 91 93 94 95 94 93 95 98 100 102 103 103 103 104 107 110 111 111 111 110 109 109 109 108 109 108 107 105 103 99 96 93 92 91 91 91 92 91 91 90 90 91 92 93 94 94 94 93 92 90 88 88
106 106 103 103 105 105 102 101 105 110 111 109 107 104 99 97 98 98 96 96 101 106 105 101 100 96 88 87 95 98 93 90 92 93 94 96 99 100 99 99 101 103 104 105 106 107 108 111 113 113 113 111 110 109 109 109 109 108 108 107 105 102 98 95 92 90 90 90 91 92 92 92 91 91 91 92 93 94 94 94 94 93 92 91 89 89
111 111 109 109 112 110 105 105 111 116 117 116 114 110 104 101 102 104 103 102 103 104 104 104 105 99 91 93 101 100 94 92 94 96 98 100 102 103 104 105 107 108 109 110 112 113 115 116 116 114 112 111 110 109 109 109 108 108 108 105 102 98 94 91 90 90 90 91 92 93 93 93 92 92 92 93 94 95 95 94 94 94 93 91 90 90
114 114 114 116 119 116 111 112 118 121 123 124 119 111 107 107 109 111 110 108 107 106 106 108 108 104 98 99 102 101 96 94 97 100 102 102 102 106 109 111 112 112 114 115 116 118 118 117 114 113 112 111 110 109 108 108 107 107 105 102 98 94 91 90 90 91 92 93 94 94 94 93 93 93 94 95 95 96 95 95 94 94 93 91 91 91
118 119 120 122 124 122 119 120 124 126 129 126 117 113 114 115 116 115 114 113 112 110 110 110 108 106 103 102 104 104 101 99 102 104 103 103 106 109 113 115 116 116 117 118 118 118 117 115 114 113 112 111 110 108 106 105 105 104 102 99 96 93 91 90 91 93 94 95 95 95 95 94 94 95 95 96 97 96 96 95 95 94 93 91 91 92
122 124 124 127 130 130 128 128 131 133 132 125 120 121 122 120 121 120 119 117 116 114 114 111 108 106 104 104 107 107 105 105 106 104 104 107 110 112 115 116 116 117 117 117 117 117 116 115 114 113 111 110 109 106 104 102 102 101 99 97 94 93 92 93 95 97 97 97 97 97 96 96 96 97 97 98 98 97 96 96 95 94 93 92 92 93
126 128 129 132 135 136 135 136 138 137 133 129 128 127 125 124 126 124 121 119 117 117 115 112 110 107 104 106 109 110 109 107 104 102 105 109 113 115 116 115 115 116 117 117 117 116 116 116 114 112 111 109 106 103 100 99 100 99 97 96 95 95 95 96 98 99 100 99 99 99 98 98 98 99 99 99 98 98 97 96 95 94 92 92 93 94
130 132 134 136 138 139 140 141 142 141 138 135 132 128 127 128 128 126 123 120 118 116 115 114 112 108 106 107 109 110 110 108 102 99 103 110 115 116 115 114 114 115 115 116 117 117 117 116 114 112 109 106 103 101 99 98 99 98 98 97 97 98 99 100 101 102 102 102 102 101 101 101 101 101 101 100 99 98 97 96 94 93 92 92 94 95
134 136 138 139 141 143 145 146 146 145 142 138 133 129 128 129 129 128 125 121 117 116 116 117 115 109 106 107 109 110 111 108 101 96 101 110 115 116 115 114 113 113 114 115 116 117 117 116 114 110 106 104 102 101 99 99 99 99 99 100 102 103 103 104 105 105 105 105 104 104 103 103 103 103 102 101 100 98 97 96 94 93 92 93 95 97
137 139 142 144 145 147 148 149 150 148 144 139 133 129 129 129 128 128 127 123 116 114 117 119 116 110 108 110 112 113 112 107 100 96 101 109 113 113 114 113 112 112 113 114 115 115 116 115 112 107 104 103 103 102 102 102 102 102 103 105 106 108 108 108 109 109 108 108 106 105 105 104 104 104 103 102 101 99 97 95 94 93 93 94 96 98
140 142 144 146 148 149 149 150 151 150 145 139 133 130 130 129 128 130 129 121 114 115 119 121 119 116 115 117 118 118 115 109 103 100 101 106 109 110 112 112 112 113 113 113 113 113 112 111 108 105 104 104 104 105 106 106 106 107 108 110 111 112 112 113 113 113 112 110 108 107 106 106 105 104 104 104 102 99 97 96 95 94 94 95 97 99
142 143 145 147 148 148 149 150 151 149 144 137 132 131 131 131 131 131 124 114 112 118 122 122 121 121 121 122 124 123 120 116 111 106 103 105 108 110 112 113 114 114 114 113 112 111 110 109 107 106 105 106 107 108 110 110 110 111 112 114 114 115 116 117 117 117 115 112 110 109 108 108 107 106 106 105 103 100 98 96 95 94 95 97 98 100
144 144 146 146 146 147 148 149 149 146 141 135 132 132 133 133 130 125 116 113 118 123 123 122 122 123 123 126 127 126 125 123 119 112 108 108 110 111 113 114 115 114 114 113 111 111 110 109 108 108 109 109 110 112 113 114 114 115 116 117 117 118 119 120 121 120 119 115 113 112 111 111 110 109 108 107 104 101 99 97 96 95 96 98 99 100
145 146 146 146 146 146 147 148 148 145 137 132 131 133 132 130 126 120 118 120 123 124 124 123 123 123 125 128 129 129 128 126 123 119 116 115 114 114 115 115 114 113 112 111 111 110 109 108 109 110 111 112 113 114 115 116 117 118 119 119 119 121 122 124 125 124 121 119 116 115 115 115 114 113 111 109 106 103 101 99 97 96 97 98 98 100
147 148 147 145 144 145 147 148 147 141 133 129 131 131 127 123 122 121 121 122 122 122 123 123 123 123 126 128 128 128 126 124 124 123 121 119 117 116 116 114 112 111 110 110 110 109 108 108 109 110 112 114 115 116 117 118 119 120 121 122 123 125 126 127 127 126 124 122 120 120 121 121 120 118 115 112 108 105 102 100 98 97 97 98 98 100
146 144 142 141 141 144 146 146 141 134 128 126 126 124 120 118 118 119 119 119 117 118 120 122 123 123 125 127 128 127 125 124 123 123 121 119 118 116 115 113 111 110 109 109 109 108 108 108 110 111 114 116 117 118 119 120 121 122 124 125 126 127 127 128 128 127 125 123 123 124 126 126 125 122 119 115 110 106 103 100 98 97 97 98 99 100
140 136 134 136 138 139 139 136 132 126 121 119 118 116 115 114 114 114 115 115 115 117 120 123 123 122 123 126 128 128 127 126 125 124 122 120 118 116 114 113 111 111 111 110 109 109 109 109 111 113 115 117 119 120 120 121 122 124 126 127 128 128 128 129 128 127 126 126 127 128 128 127 126 123 120 116 111 107 103 100 98 97 97 98 99 100
132 128 127 129 131 131 129 127 124 119 114 113 112 110 109 110 110 110 111 113 117 119 122 123 123 122 123 124 126 127 128 128 127 126 123 121 119 117 115 114 114 114 113 112 111 111 111 111 112 115 117 119 120 121 122 123 124 126 127 128 129 129 129 129 129 129 129 130 130 129 128 127 125 122 118 115 111 107 103 100 98 97 98 98 99 101
125 122 122 123 124 125 124 120 117 113 111 110 109 106 105 105 106 107 110 114 116 118 121 123 124 124 124 124 125 126 126 127 127 126 123 121 119 117 115 115 116 116 116 115 114 113 113 114 115 117 119 121 122 122 123 125 126 127 129 129 130 130 130 130 131 131 131 130 129 129 128 126 124 121 117 113 110 106 103 100 98 97 97 98 100 100
122 120 120 120 120 121 119 115 111 110 108 106 105 104 102 101 101 104 109 111 112 112 116 120 123 124 125 125 125 125 125 126 125 124 122 121 118 116 115 115 116 117 117 116 116 115 115 116 117 119 121 123 124 125 126 127 128 129 130 131 131 131 131 132 132 131 130 130 129 129 128 126 123 119 115 112 109 106 103 102 101 100 99 100 100 100
120 120 120 119 118 117 115 110 108 108 107 104 102 101 100 99 100 102 106 108 108 108 109 113 116 119 121 122 122 123 123 123 122 121 121 120 117 115 114 115 116 117 117 117 117 117 117 118 119 121 123 124 126 127 128 129 130 130 131 131 131 132 133 133 132 132 131 131 130 128 126 124 120 117 114 111 108 105 103 103 103 103 103 103 101 100
117 117 117 118 117 115 111 108 107 108 107 102 98 99 100 101 102 103 105 106 105 104 104 106 109 113 116 118 118 119 120 119 118 118 119 118 117 116 116 116 116 116 116 117 118 118 119 119 120 122 124 125 126 127 128 129 130 131 131 131 132 133 133 133 133 132 131 129 127 125 122 120 117 114 112 110 108 106 105 104 104 104 105 104 103 100
115 114 114 115 113 111 108 107 109 110 107 100 96 97 100 102 104 104 104 104 103 102 102 103 105 108 111 113 113 114 115 116 115 116 116 116 117 117 118 117 116 115 115 116 118 119 120 121 122 123 125 125 126 127 128 130 130 131 131 132 133 134 134 133 132 131 128 124 122 120 118 116 114 113 111 110 108 107 107 107 106 105 105 104 102 99
Wind_Direction
280 279 277 275 274 275 274 274 274 275 276 278 280 282 284 285 288 290 293 295 296 301 299 299 306 302 294 295 297 299 302 301 301 300 297 296 295 295 295 295 295 296 296 297 298 299 300 301 303 304 305 307 308 308 307 306 306 306 306 306 305 305 305 304 303 303 303 303 303 304 304 303 302 301 301 301 301 301 301 300 299 299 300 301 302 303
281 281 278 276 276 275 274 274 274 275 275 276 278 280 282 283 285 288 291 293 295 299 298 298 305 302 296 297 294 296 302 302 302 301 297 295 297 297 296 295 295 295 296 297 298 299 300 301 303 303 305 306 307 307 306 305 305 305 304 304 304 304 303 303 303 303 302 302 303 303 303 303 302 302 302 303 303 303 302 301 300 300 300 301 301 302
283 282 279 278 276 274 274 275 275 274 274 275 277 278 280 282 283 287 290 291 293 297 297 296 303 301 297 298 292 292 301 302 301 299 295 296 298 297 296 295 295 295 296 298 300 301 301 302 302 303 304 305 305 305 304 305 304 304 303 303 303 302 303 302 302 302 301 302 302 302 302 303 303 304 304 304 304 304 303 302 301 300 301 301 301 302
284 282 281 280 277 276 276 276 275 275 274 276 277 278 279 280 283 285 287 290 292 296 296 295 300 300 298 299 292 291 299 300 299 298 296 299 300 299 298 297 297 297 299 301 302 302 302 302 302 302 303 303 304 304 304 304 303 303 302 301 301 302 302 302 301 301 301 301 302 302 302 303 305 305 305 305 304 304 303 302 302 301 301 301 301 302
285 283 282 281 280 278 278 277 276 275 275 277 278 279 279 280 283 284 285 288 291 295 296 295 295 296 299 299 293 294 300 299 298 298 299 301 302 301 300 299 299 300 302 304 303 302 302 301 301 301 302 303 303 303 304 303 302 302 301 300 301 301 301 301 301 301 301 302 302 303 303 305 306 306 306 305 304 304 304 303 303 302 302 302 302 302
287 284 282 282 282 281 279 279 278 277 277 279 280 279 280 281 283 285 285 286 290 293 296 295 292 293 300 298 290 293 298 298 297 297 300 302 302 301 300 300 301 302 304 305 302 301 301 300 300 300 301 302 303 303 303 302 301 301 300 300 301 301 301 301 301 301 301 302 302 303 305 306 306 306 305 305 305 306 306 305 305 304 303 303 302 302
285 284 283 283 282 282 281 280 279 279 280 279 280 280 282 283 283 285 286 287 289 292 296 294 289 293 303 294 287 290 293 295 295 296 299 301 300 299 299 300 301 301 304 303 301 300 300 299 299 300 301 301 302 302 302 301 301 301 300 301 302 302 302 301 301 301 300 301 303 304 305 306 305 305 306 307 307 308 308 307 307 306 305 304 303 302
284 284 285 284 284 283 282 281 281 282 282 281 280 281 283 284 284 285 285 287 288 291 297 292 286 295 305 292 288 290 289 291 293 296 299 299 298 297 298 299 300 302 303 301 299 299 298 298 298 299 300 300 300 301 301 301 301 301 301 302 302 302 302 302 301 300 300 301 303 304 305 305 305 305 307 308 309 309 309 308 307 306 305 304 303 302
284 285 285 286 286 284 282 282 283 283 283 283 282 282 283 284 285 286 286 287 287 291 296 289 287 297 304 297 292 288 287 290 293 297 298 296 295 295 296 298 300 302 302 299 298 298 297 297 298 298 299 299 299 300 300 300 300 300 301 301 301 302 302 302 301 299 300 301 303 303 304 304 304 305 306 308 308 309 309 308 307 306 305 304 303 302
283 283 284 286 285 284 283 284 284 284 285 285 284 284 284 284 285 285 286 286 286 291 293 288 290 297 303 304 293 287 289 291 293 297 296 293 292 293 295 297 300 301 299 297 297 297 296 297 297 298 298 298 299 300 300 300 299 300 300 301 301 302 302 301 300 300 300 301 302 303 303 303 304 305 306 307 308 308 308 308 307 306 305 304 303 301
282 283 284 284 283 283 283 284 284 285 286 286 286 285 284 284 284 284 286 286 286 291 293 290 293 296 303 305 291 288 292 292 295 296 292 290 291 292 293 296 299 298 296 296 297 296 296 297 297 297 297 298 298 299 299 299 299 300 300 301 302 302 302 302 301 300 301 301 302 302 302 303 304 305 306 307 307 308 308 308 307 306 305 303 302 300
282 283 283 283 283 283 284 284 285 286 286 287 287 286 285 284 284 285 287 286 288 293 293 292 294 296 303 302 292 292 294 294 296 293 289 290 290 290 291 295 297 295 295 296 297 296 297 298 298 298 298 298 299 299 299 299 300 300 301 301 302 303 303 302 301 300 301 301 301 301 301 302 303 304 305 306 307 307 307 307 307 305 304 302 300 299
282 282 283 283 283 283 285 285 286 286 287 287 287 286 286 287 287 287 287 287 290 295 294 293 293 295 300 297 292 295 296 296 295 290 288 290 289 288 291 295 296 294 295 297 297 297 298 299 299 299 298 299 299 300 300 300 300 301 301 302 302 303 303 302 301 300 300 301 301 301 301 302 303 304 305 305 306 307 307 307 306 304 302 300 299 299
281 281 282 283 282 284 285 285 285 286 286 286 287 287 288 290 289 288 288 289 292 293 292 292 291 292 294 293 293 298 297 295 291 288 288 290 289 289 293 296 295 295 297 299 298 299 299 299 299 299 299 299 299 299 300 300 301 301 302 302 303 303 303 302 301 301 301 301 301 301 302 303 303 304 305 305 306 307 307 306 305 303 301 300 299 298
281 280 281 282 283 285 285 285 286 286 286 287 287 288 290 291 290 289 290 291 291 289 289 289 289 292 293 292 297 299 296 292 288 287 288 289 289 290 294 296 295 296 299 299 299 300 299 299 298 298 299 299 299 299 300 301 302 302 302 303 303 303 303 302 301 301 301 301 301 302 302 303 303 304 305 306 307 307 307 305 303 302 300 299 299 299
280 280 280 281 283 285 284 285 286 286 288 289 289 290 292 291 291 293 293 293 291 288 288 287 289 294 297 299 304 299 293 290 287 286 288 290 290 292 295 296 296 297 298 298 299 299 298 298 298 298 299 299 299 300 301 302 302 302 303 303 303 303 303 302 301 301 301 301 302 302 302 303 304 305 306 307 307 307 306 304 303 301 300 300 300 300
281 281 279 279 281 282 283 284 285 288 291 291 291 292 292 292 293 295 294 293 292 290 289 288 289 295 301 305 304 296 293 292 287 287 290 293 293 294 296 296 296 297 298 298 299 299 298 298 298 299 299 299 300 301 302 302 302 302 303 303 302 302 301 301 301 301 301 302 302 303 303 304 305 306 307 308 307 306 305 303 302 302 301 301 302 303
282 281 280 280 280 280 281 283 286 290 291 290 290 291 292 293 294 294 293 293 293 291 291 292 293 298 306 307 298 291 292 290 286 287 291 293 293 293 294 295 295 296 297 298 298 298 298 298 298 298 299 299 300 301 302 302 302 303 302 302 301 301 300 300 301 301 302 303 303 304 305 305 306 307 308 307 306 305 304 303 303 303 303 304 305 305
283 282 281 280 280 280 281 284 288 289 288 289 291 292 293 294 294 293 293 293 293 293 293 294 295 299 308 307 297 293 292 289 287 289 292 291 291 291 292 293 293 295 296 296 295 296 296 296 297 297 297 298 299 300 301 301 302 302 302 301 300 300 300 300 301 302 303 304 305 305 306 307 307 307 307 306 305 305 304 304 304 305 306 307 307 306
282 282 282 281 280 280 282 286 287 287 288 290 292 292 294 295 294 292 292 293 295 295 295 296 294 299 308 304 297 295 292 290 290 292 293 291 290 290 291 292 293 295 295 294 294 295 295 295 295 296 297 298 299 299 300 300 300 300 300 300 300 300 301 301 302 304 305 306 306 307 307 307 307 307 306 305 305 305 305 305 307 308 309 309 308 307
281 282 282 281 279 280 283 284 285 287 289 290 291 293 294 294 292 291 293 296 297 296 297 298 296 303 310 301 295 293 290 289 291 292 292 289 289 290 291 292 294 295 294 294 294 294 295 295 295 296 297 298 298 299 299 299 300 300 300 301 301 301 302 303 304 305 306 306 307 307 307 307 306 306 305 305 305 306 307 308 309 311 311 310 309 308
279 280 280 279 279 280 282 283 285 287 288 289 291 292 292 291 291 293 295 296 295 295 298 299 299 307 312 299 292 289 288 289 291 290 288 286 287 289 290 292 295 294 294 294 294 295 295 295 295 296 297 297 298 299 300 300 300 301 301 302 302 303 303 303 304 305 306 306 307 307 307 306 305 305 305 305 306 307 309 310 312 312 312 311 310 309
277 277 278 279 280 281 282 283 285 287 288 288 289 289 289 290 292 293 292 293 294 294 298 298 298 306 310 296 290 289 289 291 291 290 287 285 286 288 290 293 294 293 293 294 294 295 294 295 295 295 297 298 299 300 300 301 301 301 302 302 303 303 303 304 305 306 306 307 307 307 306 305 305 305 306 307 308 309 311 312 314 314 313 313 311 311
275 276 277 279 280 281 284 286 287 288 288 288 287 288 289 290 290 289 289 291 291 294 298 295 294 304 306 293 290 292 293 293 292 290 287 286 289 291 292 293 292 292 293 294 294 294 294 294 294 295 297 298 299 300 300 300 301 301 302 302 303 303 304 305 305 306 307 307 307 306 305 305 305 306 307 308 310 311 312 314 315 315 315 314 313 313
276 276 277 279 280 282 285 287 289 289 287 287 288 289 290 290 288 288 289 289 290 295 296 291 292 300 299 290 292 297 295 293 291 290 289 291 293 293 292 292 292 293 294 294 293 293 293 294 294 295 296 297 299 299 300 300 301 302 302 303 303 304 305 306 306 307 306 306 305 304 304 305 306 307 309 310 311 312 314 316 316 316 316 315 315 315
275 276 277 279 281 283 284 286 287 286 285 286 288 288 288 289 289 289 288 289 293 294 291 288 292 295 292 290 295 298 295 292 290 291 293 294 294 292 292 292 293 294 295 294 294 293 293 294 294 295 296 297 299 299 300 300 301 302 302 303 304 304 305 306 306 306 305 304 304 304 305 307 308 309 311 312 313 314 316 317 317 317 317 316 317 317
274 274 276 279 281 282 282 282 282 283 285 286 287 286 287 288 289 289 289 292 295 292 288 289 292 292 290 292 295 296 293 291 292 294 295 295 293 292 293 293 294 295 295 294 294 293 293 293 294 295 296 298 299 300 300 300 301 302 303 303 304 305 305 306 305 304 304 303 304 305 307 309 310 311 312 313 314 316 317 318 318 318 318 317 318 318
274 274 276 278 280 280 281 281 282 285 286 286 286 286 287 288 289 289 291 293 292 289 287 289 290 289 290 293 294 292 289 290 293 295 294 293 293 292 292 294 295 295 294 294 293 293 293 293 294 295 297 299 299 299 300 300 301 302 303 303 304 305 305 304 304 303 303 303 304 306 309 310 312 313 314 315 316 317 318 319 319 319 319 319 319 320
274 275 276 277 277 278 280 282 284 286 286 286 286 286 287 289 291 292 293 291 287 285 287 288 288 288 290 294 292 288 287 291 293 293 292 292 292 291 292 294 294 293 293 292 292 292 293 293 294 296 297 298 299 299 300 301 302 302 303 304 304 304 304 304 304 304 304 305 307 309 311 312 313 314 315 316 316 318 319 319 320 320 319 320 320 321
273 274 275 276 276 278 280 284 285 284 284 285 285 285 287 291 292 292 291 287 284 284 286 287 286 286 289 291 289 287 290 293 292 291 291 291 290 291 293 293 293 292 291 291 291 292 293 294 295 296 298 298 299 300 301 302 302 303 303 303 303 303 304 304 305 305 306 307 309 311 313 313 314 314 315 316 317 318 319 320 321 321 320 320 321 322
275 276 277 278 278 279 282 284 283 282 283 283 283 285 290 292 291 290 290 287 285 285 285 284 283 285 287 288 287 288 291 291 290 291 290 290 291 292 293 293 292 291 291 291 292 293 294 294 296 297 298 299 300 301 302 302 303 303 303 303 303 304 305 306 306 307 308 310 311 313 314 314 314 315 316 317 318 319 320 321 322 322 321 321 322 323
276 277 278 280 280 281 282 282 281 282 282 282 284 289 292 290 288 290 292 290 288 286 284 283 283 284 286 286 287 288 289 289 289 288 288 290 291 292 292 292 291 291 292 293 293 294 294 295 296 297 298 300 301 302 302 303 302 302 302 303 304 306 306 307 308 309 311 312 313 314 314 314 315 316 317 317 318 319 320 321 322 322 321 322 323 324
276 278 279 280 281 282 282 282 282 282 282 283 288 292 290 287 289 293 293 291 288 286 285 285 285 285 286 286 287 287 287 287 287 287 289 290 290 290 291 291 290 291 293 293 294 294 295 296 297 298 299 300 301 302 302 302 301 301 302 304 306 307 308 309 310 312 313 314 314 314 315 315 316 316 317 318 319 320 321 322 322 322 321 323 324 325
276 278 279 280 280 281 281 282 282 281 283 286 289 289 288 290 292 293 291 289 288 286 286 287 287 287 287 286 285 285 286 285 285 288 290 290 289 289 290 290 291 292 293 294 294 295 296 297 298 298 300 301 301 301 301 300 301 302 303 305 307 308 309 311 313 314 314 314 315 315 315 316 316 317 318 318 319 320 321 322 322 322 322 324 325 326
276 277 278 279 279 280 281 281 282 283 285 286 287 287 289 291 291 290 289 288 288 287 288 288 287 287 287 285 284 284 284 284 286 289 290 290 290 290 290 291 292 293 294 295 295 296 297 298 298 299 300 301 301 300 300 300 302 303 305 307 308 310 311 313 314 315 315 315 315 316 316 316 317 318 318 318 319 320 321 322 322 322 323 325 326 327
276 277 277 278 278 280 280 281 282 283 284 285 286 289 290 290 290 289 288 288 288 289 289 288 288 287 286 285 284 284 285 285 286 288 290 290 290 289 290 292 292 293 295 296 296 297 298 298 299 300 301 300 300 300 301 302 304 305 307 309 310 312 313 314 315 315 315 315 315 316 317 317 317 318 318 318 319 320 321 322 322 323 324 325 326 327
276 276 277 278 278 279 280 281 282 283 283 285 287 289 289 289 289 289 288 288 288 290 290 288 288 288 287 286 285 286 285 285 286 288 289 289 289 290 291 292 293 294 295 296 297 298 298 298 299 300 301 301 302 302 303 304 306 308 309 311 312 313 314 315 315 315 315 315 316 316 316 317 317 318 318 318 319 320 321 321 322 323 325 326 327 328
275 276 277 278 278 279 280 280 282 283 284 286 287 288 288 288 289 289 288 287 289 291 289 288 289 289 288 287 287 287 286 285 286 287 287 287 288 290 291 292 294 295 295 296 297 298 298 299 299 300 301 303 304 305 306 307 308 310 311 312 313 314 314 315 315 315 315 315 315 316 316 316 317 317 318 318 319 320 321 321 322 324 325 327 328 328
275 276 277 277 278 278 279 281 282 283 284 286 287 288 288 288 288 288 286 287 291 291 289 288 290 290 290 289 289 288 288 287 286 286 286 287 289 290 292 293 294 295 295 296 297 297 298 299 300 301 303 304 306 307 308 309 310 311 312 312 313 314 314 315 315 315 315 315 315 315 316 316 317 317 318 318 319 319 321 322 323 324 326 327 328 328
275 275 276 276 277 278 279 280 281 282 284 286 287 288 288 288 287 285 286 290 292 290 288 289 290 290 291 291 290 290 290 289 289 288 289 290 291 292 293 294 294 295 296 296 297 298 299 300 302 303 304 306 307 308 309 310 310 310 311 312 313 313 314 314 314 314 314 314 315 315 316 317 317 318 318 318 318 319 321 322 323 325 326 327 328 328
274 274 275 275 276 277 278 279 280 282 284 286 287 287 286 285 285 286 289 291 290 287 288 289 289 290 291 291 291 291 291 291 292 292 293 293 293 293 294 294 295 296 297 298 299 300 301 303 304 304 305 306 307 308 309 309 309 310 311 311 312 312 312 312 313 313 314 314 315 316 316 317 317 318 318 318 318 319 321 322 323 325 326 327 327 328
274 274 274 275 276 277 278 279 280 282 283 284 284 283 283 284 285 288 289 288 287 287 288 288 289 290 290 290 290 290 291 292 294 294 294 294 295 295 295 296 297 297 298 299 300 301 302 303 303 303 304 305 306 306 307 308 308 309 309 310 311 311 311 312 312 313 314 315 315 316 317 317 317 317 317 317 318 319 320 322 323 325 326 326 327 328
273 273 274 275 277 278 278 279 279 281 282 283 282 281 282 284 285 286 286 285 285 286 287 287 288 288 288 288 288 289 290 292 293 293 294 295 295 296 296 296 297 297 298 299 300 300 301 301 301 301 302 303 304 305 306 306 307 308 309 309 310 310 310 311 312 313 314 314 315 316 316 316 316 316 316 316 317 319 320 322 323 325 326 326 327 327
272 272 274 276 276 276 276 277 278 280 281 281 280 281 283 284 284 283 283 283 284 285 285 285 285 285 285 286 287 288 290 290 291 292 292 293 294 294 294 295 295 296 297 298 298 299 299 299 300 300 300 301 302 303 304 305 306 307 307 308 308 308 309 310 311 312 313 314 315 315 315 315 315 315 315 315 316 318 320 322 323 324 325 326 326 327
272 273 274 274 274 274 275 276 277 278 279 280 280 281 282 283 283 283 283 284 285 285 284 284 284 284 285 286 287 288 289 290 290 291 292 292 293 293 293 294 295 295 296 297 297 298 298 298 299 299 299 300 301 302 304 305 305 305 306 306 307 308 309 310 311 311 312 313 313 313 313 313 314 314 314 314 316 318 319 321 323 324 325 326 326 327
272 273 273 273 273 274 274 275 276 278 279 280 280 281 282 282 283 284 284 284 283 283 283 283 283 284 284 285 286 286 287 289 289 290 290 291 291 292 293 294 295 295 296 296 297 297 298 298 298 298 299 299 300 301 302 303 303 304 304 305 307 308 309 309 310 310 311 311 311 312 312 313 313 313 313 314 316 318 319 321 323 324 324 325 326 326
272 272 272 272 273 274 274 276 277 278 279 280 280 281 282 282 283 283 282 281 280 280 281 282 282 283 283 283 283 284 285 286 286 287 288 289 290 291 292 293 294 294 295 296 297 297 297 297 298 297 298 298 299 300 301 301 302 303 304 305 306 307 308 308 308 309 309 310 311 311 312 312 312 312 313 314 316 318 319 321 322 323 324 325 326 326
273 273 272 272 273 273 275 276 278 278 278 279 280 280 281 281 281 280 279 279 278 278 278 278 279 280 280 281 281 281 282 282 283 285 286 287 288 290 291 291 292 292 293 295 295 296 296 296 296 296 296 297 298 299 300 301 301 302 303 304 305 306 306 307 307 308 309 310 311 311 311 311 311 311 313 314 316 318 320 321 322 323 324 325 325 325
271 272 273 273 273 274 275 276 277 277 277 278 278 279 280 280 279 277 276 276 275 275 275 275 276 276 277 277 278 278 278 279 281 282 284 285 286 287 288 288 289 290 291 292 293 294 294 294 294 294 295 296 296 297 298 299 300 301 301 302 303 304 305 305 306 308 309 309 310 310 310 309 310 311 313 314 316 318 320 321 322 323 324 324 324 324
270 271 272 273 274 275 276 277 277 277 276 277 277 278 277 276 275 274 273 273 274 274 274 274 273 274 274 274 274 275 276 277 279 280 281 283 284 284 284 285 286 287 288 289 290 290 291 291 291 292 292 292 293 294 296 297 298 299 300 301 302 303 303 304 306 307 308 308 308 308 308 308 309 311 312 314 316 318 320 321 322 323 323 323 323 323
271 272 272 273 274 275 277 278 277 276 276 275 275 274 273 273 272 272 272 273 274 274 274 273 273 272 272 273 274 274 275 277 278 279 280 280 281 281 282 283 284 285 285 286 287 288 288 289 289 289 290 290 291 293 294 295 296 298 299 300 300 301 302 304 304 305 306 307 307 306 306 308 309 311 312 314 316 318 319 320 321 322 323 323 323 323
Height
10759 10760 10757 10755 10756 10757 10757 10757 10758 10759 10759 10758 10758 10759 10758 10757 10755 10752 10755 10757 10757 10760 10758 10754 10758 10757 10751 10746 10738 10732 10732 10731 10731 10730 10727 10727 10729 10729 10729 10728 10727 10726 10724 10723 10722 10720 10717 10713 10710 10707 10704 10702 10699 10697 10695 10692 10690 10687 10684 10682 10679 10677 10674 10671 10668 10665 10662 10660 10657 10654 10651 10647 10644 10640 10637 10633 10628 10624 10619 10615 10609 10604 10599 10593 10588 10583
10754 10754 10750 10750 10752 10751 10750 10751 10752 10753 10754 10753 10753 10754 10753 10751 10752 10750 10749 10752 10752 10755 10754 10750 10754 10752 10746 10743 10735 10730 10729 10723 10724 10724 10718 10720 10723 10722 10723 10722 10721 10721 10719 10718 10717 10714 10711 10707 10704 10700 10698 10695 10692 10690 10687 10686 10683 10680 10678 10676 10673 10670 10668 10665 10661 10658 10655 10653 10649 10646 10643 10639 10635 10631 10626 10622 10618 10613 10608 10603 10598 10593 10587 10581 10575 10570
10750 10747 10743 10744 10746 10744 10745 10745 10745 10747 10748 10747 10748 10749 10747 10744 10747 10748 10744 10745 10747 10749 10750 10748 10750 10749 10742 10738 10729 10725 10728 10719 10715 10715 10709 10712 10717 10716 10716 10716 10716 10715 10714 10712 10710 10708 10705 10701 10697 10694 10691 10688 10686 10683 10680 10679 10676 10674 10672 10669 10666 10664 10661 10658 10654 10651 10648 10645 10642 10638 10634 10630 10625 10621 10616 10611 10606 10601 10596 10591 10586 10580 10574 10568 10562 10556
10744 10740 10738 10738 10739 10739 10739 10739 10738 10740 10741 10743 10742 10742 10741 10739 10741 10745 10741 10740 10741 10743 10745 10744 10748 10747 10740 10735 10722 10717 10725 10719 10708 10704 10700 10703 10707 10707 10708 10708 10709 10709 10708 10707 10703 10700 10698 10694 10691 10687 10684 10681 10679 10676 10674 10672 10669 10667 10665 10662 10659 10657 10654 10650 10647 10644 10641 10637 10634 10629 10625 10620 10615 10611 10606 10600 10595 10590 10584 10578 10573 10567 10561 10555 10548 10541
10737 10733 10733 10731 10732 10733 10733 10732 10731 10732 10736 10738 10736 10734 10734 10734 10734 10738 10738 10736 10736 10737 10737 10738 10744 10746 10740 10735 10722 10710 10714 10715 10706 10696 10692 10695 10695 10695 10698 10699 10701 10702 10701 10700 10695 10693 10691 10687 10684 10680 10677 10674 10671 10669 10667 10665 10662 10660 10658 10654 10652 10649 10646 10642 10639 10636 10632 10628 10624 10620 10616 10611 10606 10600 10596 10590 10585 10580 10573 10567 10560 10554 10548 10541 10534 10526
10730 10724 10727 10727 10726 10726 10726 10725 10722 10724 10731 10733 10729 10725 10727 10730 10728 10730 10732 10733 10734 10732 10731 10729 10734 10743 10742 10735 10725 10712 10706 10704 10703 10696 10687 10687 10686 10684 10687 10691 10693 10695 10695 10693 10688 10685 10683 10679 10676 10673 10670 10667 10664 10662 10660 10658 10655 10653 10650 10647 10644 10641 10638 10634 10631 10627 10623 10620 10615 10611 10606 10602 10596 10590 10585 10580 10575 10569 10562 10556 10549 10541 10534 10528 10520 10512
10722 10717 10720 10721 10720 10720 10719 10718 10715 10717 10724 10727 10723 10718 10720 10723 10723 10724 10724 10726 10729 10729 10729 10722 10720 10736 10742 10734 10724 10715 10706 10697 10696 10696 10687 10681 10678 10674 10677 10682 10685 10688 10689 10686 10681 10678 10676 10672 10669 10666 10663 10661 10657 10655 10653 10651 10648 10645 10642 10639 10636 10633 10630 10626 10622 10618 10614 10610 10606 10601 10597 10592 10587 10580 10574 10569 10564 10558 10551 10544 10537 10529 10521 10513 10506 10498
10716 10713 10713 10713 10715 10714 10711 10709 10709 10710 10715 10720 10718 10713 10714 10714 10716 10719 10718 10719 10721 10724 10728 10717 10708 10727 10740 10732 10722 10713 10704 10694 10689 10692 10688 10677 10670 10666 10668 10674 10677 10681 10683 10679 10675 10672 10669 10665 10662 10659 10656 10653 10651 10648 10646 10643 10640 10637 10634 10631 10628 10624 10621 10617 10613 10610 10605 10601 10597 10592 10587 10582 10576 10570 10564 10558 10553 10546 10540 10532 10525 10517 10508 10500 10492 10483
10710 10709 10707 10706 10708 10706 10704 10703 10703 10703 10706 10711 10711 10709 10708 10707 10709 10711 10711 10713 10713 10719 10725 10711 10701 10716 10732 10730 10719 10707 10701 10693 10685 10685 10683 10672 10663 10659 10661 10665 10670 10673 10674 10672 10668 10665 10661 10658 10655 10652 10649 10646 10643 10641 10639 10635 10632 10629 10626 10623 10619 10616 10612 10608 10604 10600 10596 10591 10587 10582 10576 10571 10565 10560 10554 10548 10542 10536 10529 10522 10514 10506 10497 10488 10478 10469
10704 10705 10702 10701 10700 10697 10697 10697 10697 10697 10699 10702 10703 10703 10702 10701 10704 10704 10705 10705 10705 10714 10719 10707 10699 10706 10721 10725 10712 10700 10698 10690 10683 10680 10674 10665 10657 10653 10654 10658 10663 10665 10665 10663 10662 10658 10654 10651 10648 10645 10641 10638 10635 10633 10630 10627 10623 10620 10618 10614 10611 10607 10603 10598 10594 10590 10586 10581 10576 10571 10566 10560 10554 10549 10543 10537 10531 10524 10518 10510 10502 10494 10485 10475 10466 10456
10698 10699 10698 10696 10692 10690 10690 10690 10691 10691 10692 10693 10694 10695 10693 10694 10696 10697 10699 10697 10697 10710 10711 10702 10699 10699 10710 10718 10703 10695 10694 10686 10680 10674 10664 10657 10651 10647 10648 10652 10656 10656 10655 10655 10654 10651 10646 10644 10641 10637 10634 10630 10627 10625 10622 10618 10615 10612 10609 10605 10602 10598 10593 10588 10584 10580 10576 10571 10566 10561 10555 10550 10544 10538 10532 10525 10519 10512 10505 10498 10489 10480 10471 10462 10453 10443
10692 10693 10691 10688 10685 10683 10683 10683 10684 10685 10685 10685 10685 10684 10683 10686 10688 10689 10692 10688 10689 10703 10703 10696 10696 10695 10703 10706 10694 10690 10688 10681 10676 10665 10653 10650 10645 10640 10642 10648 10649 10646 10646 10648 10646 10642 10639 10636 10632 10628 10625 10622 10619 10616 10613 10610 10606 10603 10599 10595 10592 10588 10583 10578 10574 10569 10565 10561 10556 10550 10544 10538 10533 10527 10520 10514 10507 10500 10493 10485 10476 10467 10458 10449 10439 10429
10686 10686 10683 10680 10677 10676 10677 10677 10677 10678 10678 10678 10676 10674 10673 10676 10677 10680 10683 10680 10684 10694 10693 10690 10690 10691 10698 10696 10686 10684 10679 10674 10669 10655 10645 10644 10637 10632 10637 10642 10641 10637 10638 10639 10636 10633 10630 10626 10623 10619 10616 10613 10610 10607 10603 10600 10597 10593 10589 10585 10582 10578 10573 10568 10563 10558 10554 10550 10544 10539 10533 10527 10520 10514 10508 10501 10494 10487 10480 10473 10464 10456 10447 10438 10428 10417
10678 10680 10677 10670 10669 10671 10670 10668 10668 10670 10671 10670 10669 10665 10666 10667 10663 10666 10673 10673 10678 10684 10682 10681 10681 10685 10691 10687 10682 10679 10670 10664 10660 10646 10639 10637 10628 10624 10631 10634 10630 10628 10629 10629 10626 10624 10621 10617 10613 10610 10607 10604 10601 10597 10594 10591 10587 10583 10579 10575 10571 10567 10562 10557 10552 10547 10543 10538 10533 10527 10521 10514 10507 10501 10494 10488 10481 10474 10467 10459 10451 10443 10435 10426 10417 10408
10665 10673 10673 10662 10661 10665 10662 10659 10660 10661 10662 10664 10662 10658 10660 10659 10648 10650 10662 10664 10666 10671 10674 10673 10672 10678 10682 10679 10678 10673 10660 10656 10651 10639 10633 10629 10620 10619 10624 10624 10620 10619 10621 10619 10617 10614 10611 10607 10604 10600 10597 10594 10591 10588 10585 10582 10577 10573 10568 10564 10560 10556 10551 10546 10541 10536 10532 10526 10521 10515 10508 10501 10495 10487 10481 10474 10467 10461 10453 10445 10438 10429 10421 10413 10404 10396
10652 10664 10668 10658 10656 10658 10654 10653 10652 10651 10654 10656 10655 10652 10652 10649 10640 10639 10647 10651 10649 10654 10666 10667 10663 10672 10674 10671 10673 10662 10648 10649 10644 10632 10628 10622 10614 10614 10616 10615 10611 10612 10612 10610 10608 10605 10600 10597 10594 10590 10587 10584 10581 10578 10575 10571 10567 10562 10558 10553 10549 10545 10541 10535 10530 10525 10520 10515 10508 10502 10496 10488 10482 10474 10468 10461 10453 10446 10439 10431 10424 10416 10407 10399 10391 10383
10641 10650 10658 10655 10652 10651 10648 10647 10647 10647 10647 10646 10646 10646 10642 10638 10637 10631 10630 10636 10635 10636 10652 10659 10657 10666 10669 10666 10665 10651 10639 10641 10635 10625 10622 10615 10607 10607 10608 10606 10604 10604 10603 10601 10598 10593 10589 10586 10582 10579 10576 10573 10570 10567 10565 10561 10556 10552 10547 10543 10539 10535 10530 10524 10520 10514 10508 10503 10495 10489 10482 10475 10468 10461 10454 10447 10440 10433 10425 10417 10410 10402 10394 10385 10377 10370
10627 10632 10645 10648 10645 10645 10642 10641 10645 10645 10640 10635 10636 10638 10634 10630 10630 10624 10618 10622 10623 10620 10635 10650 10650 10657 10663 10661 10656 10642 10633 10633 10627 10621 10618 10609 10601 10599 10600 10598 10596 10596 10595 10592 10587 10582 10579 10575 10571 10569 10566 10563 10560 10557 10555 10551 10546 10542 10538 10533 10529 10524 10519 10513 10508 10503 10496 10490 10482 10475 10469 10461 10454 10447 10440 10434 10427 10419 10412 10404 10396 10388 10380 10370 10362 10355
10615 10614 10629 10639 10636 10635 10636 10637 10641 10640 10632 10627 10629 10629 10627 10623 10620 10617 10609 10609 10611 10607 10617 10637 10644 10650 10656 10652 10642 10632 10626 10623 10619 10617 10613 10604 10595 10592 10593 10591 10590 10590 10588 10582 10578 10574 10570 10566 10563 10560 10557 10554 10552 10548 10545 10541 10536 10533 10527 10523 10519 10513 10508 10502 10496 10490 10483 10476 10469 10462 10455 10447 10440 10434 10427 10420 10414 10406 10399 10391 10383 10374 10366 10356 10348 10341
10605 10599 10610 10626 10626 10624 10630 10634 10633 10630 10624 10620 10621 10620 10619 10615 10609 10607 10603 10602 10602 10596 10599 10616 10631 10647 10652 10640 10629 10622 10616 10611 10608 10610 10607 10594 10586 10584 10584 10584 10583 10583 10578 10572 10568 10565 10561 10558 10554 10551 10548 10545 10542 10538 10535 10531 10526 10522 10517 10512 10508 10502 10496 10490 10483 10477 10470 10463 10456 10449 10441 10435 10428 10421 10415 10408 10401 10393 10385 10378 10369 10361 10352 10343 10335 10327
10595 10588 10593 10606 10612 10617 10626 10627 10624 10624 10619 10613 10611 10611 10611 10606 10597 10594 10596 10599 10596 10587 10589 10594 10608 10639 10648 10629 10619 10614 10604 10600 10599 10603 10600 10583 10575 10576 10575 10576 10576 10572 10566 10560 10558 10555 10551 10548 10544 10541 10538 10534 10531 10527 10523 10520 10515 10510 10506 10501 10496 10490 10483 10477 10470 10463 10457 10450 10443 10436 10429 10422 10416 10409 10402 10395 10388 10380 10372 10364 10356 10347 10339 10330 10321 10313
10587 10578 10578 10585 10597 10610 10619 10620 10618 10618 10615 10609 10606 10603 10601 10594 10587 10583 10585 10592 10588 10579 10584 10580 10585 10624 10638 10616 10608 10605 10595 10593 10590 10592 10591 10576 10568 10569 10568 10569 10567 10561 10555 10550 10548 10545 10540 10538 10534 10530 10527 10523 10519 10516 10512 10509 10504 10498 10494 10488 10483 10477 10470 10463 10457 10450 10444 10437 10430 10424 10417 10410 10403 10396 10389 10382 10374 10367 10359 10350 10342 10333 10325 10316 10307 10298
10577 10567 10565 10571 10583 10598 10608 10612 10612 10610 10608 10604 10601 10598 10592 10587 10585 10576 10570 10579 10579 10573 10580 10571 10569 10609 10627 10603 10592 10593 10588 10585 10579 10578 10579 10568 10562 10562 10560 10560 10556 10549 10546 10542 10538 10534 10530 10527 10523 10519 10516 10512 10508 10505 10500 10496 10491 10486 10482 10476 10470 10464 10457 10450 10444 10437 10430 10424 10417 10411 10404 10398 10391 10384 10376 10369 10361 10354 10345 10337 10329 10320 10311 10303 10294 10284
10564 10557 10556 10559 10569 10584 10596 10602 10604 10602 10598 10593 10593 10592 10587 10584 10582 10570 10565 10569 10567 10570 10577 10560 10556 10596 10614 10590 10580 10583 10579 10573 10567 10564 10564 10558 10555 10554 10550 10547 10543 10539 10537 10533 10527 10524 10520 10516 10512 10508 10505 10501 10496 10493 10489 10484 10479 10474 10469 10463 10457 10450 10444 10437 10430 10424 10417 10411 10405 10398 10392 10386 10379 10371 10364 10356 10348 10340 10332 10324 10315 10306 10298 10289 10280 10271
10553 10548 10547 10548 10557 10574 10586 10591 10592 10589 10583 10581 10585 10585 10581 10579 10573 10565 10564 10560 10558 10570 10570 10546 10546 10581 10593 10577 10574 10575 10566 10558 10554 10551 10551 10550 10548 10543 10537 10533 10532 10529 10527 10522 10516 10513 10509 10505 10501 10498 10493 10489 10485 10481 10476 10471 10466 10461 10455 10449 10443 10436 10430 10424 10417 10411 10405 10398 10392 10386 10379 10373 10366 10358 10351 10343 10336 10328 10319 10311 10302 10293 10284 10276 10267 10258
10541 10539 10540 10541 10548 10562 10575 10581 10578 10571 10567 10570 10576 10575 10572 10570 10565 10560 10558 10553 10555 10560 10550 10536 10543 10561 10568 10568 10570 10564 10547 10540 10542 10541 10540 10541 10536 10528 10522 10521 10521 10519 10514 10509 10505 10501 10497 10493 10490 10486 10481 10477 10473 10468 10463 10458 10452 10447 10441 10435 10429 10423 10417 10411 10405 10399 10393 10386 10380 10373 10366 10359 10352 10345 10338 10330 10323 10315 10307 10298 10289 10280 10271 10262 10254 10245
10529 10531 10537 10540 10541 10547 10559 10568 10565 10556 10554 10560 10564 10564 10562 10562 10558 10552 10550 10554 10551 10535 10526 10534 10539 10536 10545 10563 10567 10551 10528 10521 10531 10534 10529 10526 10522 10514 10510 10510 10509 10506 10500 10495 10491 10487 10484 10481 10478 10473 10469 10465 10461 10455 10449 10444 10439 10433 10427 10421 10416 10410 10405 10399 10393 10387 10381 10374 10367 10360 10353 10346 10339 10332 10325 10317 10310 10302 10294 10286 10276 10267 10258 10249 10241 10233
10519 10522 10533 10537 10533 10533 10542 10551 10550 10542 10541 10546 10547 10549 10554 10554 10549 10545 10548 10554 10540 10511 10506 10529 10531 10516 10527 10553 10556 10536 10514 10511 10524 10525 10516 10512 10508 10502 10500 10501 10498 10492 10486 10481 10476 10472 10470 10468 10464 10460 10456 10453 10447 10442 10436 10430 10425 10420 10414 10408 10402 10397 10392 10387 10380 10374 10368 10361 10354 10347 10340 10333 10326 10319 10312 10305 10298 10290 10282 10273 10264 10255 10246 10237 10228 10220
10508 10511 10525 10527 10520 10522 10530 10537 10536 10525 10523 10530 10530 10534 10543 10545 10540 10540 10545 10544 10524 10496 10494 10515 10518 10506 10518 10538 10533 10514 10506 10510 10515 10511 10504 10500 10495 10489 10490 10492 10487 10478 10472 10466 10460 10457 10456 10454 10450 10446 10443 10439 10433 10428 10423 10417 10412 10406 10400 10394 10389 10384 10379 10373 10367 10361 10354 10347 10340 10333 10327 10320 10313 10306 10300 10293 10285 10278 10270 10261 10253 10243 10234 10225 10216 10208
10499 10501 10514 10513 10505 10509 10521 10529 10521 10506 10505 10513 10514 10520 10534 10537 10531 10529 10531 10527 10511 10492 10491 10499 10496 10496 10515 10522 10503 10492 10501 10504 10498 10495 10493 10488 10480 10477 10478 10478 10471 10463 10458 10451 10446 10444 10442 10438 10435 10432 10429 10424 10419 10414 10408 10403 10398 10392 10386 10381 10376 10371 10365 10359 10354 10347 10341 10334 10327 10320 10314 10307 10301 10294 10287 10281 10274 10266 10258 10250 10241 10232 10222 10213 10204 10195
10488 10489 10498 10498 10489 10494 10513 10519 10502 10489 10490 10492 10496 10512 10530 10528 10516 10511 10512 10510 10501 10491 10488 10484 10474 10484 10507 10503 10481 10480 10493 10490 10482 10481 10478 10473 10469 10464 10461 10458 10452 10447 10442 10437 10433 10431 10426 10422 10420 10418 10414 10410 10405 10400 10394 10389 10383 10377 10372 10367 10362 10357 10351 10345 10340 10333 10327 10320 10313 10307 10301 10294 10288 10282 10275 10269 10262 10255 10247 10238 10230 10221 10212 10202 10192 10183
10478 10477 10483 10482 10469 10477 10500 10499 10481 10477 10473 10466 10482 10511 10521 10508 10494 10496 10499 10492 10486 10481 10476 10469 10464 10474 10490 10486 10470 10471 10478 10476 10471 10466 10462 10463 10460 10450 10441 10438 10434 10430 10427 10423 10420 10415 10410 10408 10406 10403 10399 10395 10390 10386 10380 10375 10369 10363 10358 10353 10348 10343 10337 10331 10326 10319 10313 10307 10300 10295 10289 10282 10276 10270 10263 10257 10250 10243 10236 10227 10219 10211 10201 10192 10182 10172
10468 10465 10468 10465 10452 10459 10479 10476 10464 10459 10449 10453 10483 10500 10493 10483 10482 10486 10485 10475 10468 10463 10458 10458 10460 10464 10472 10470 10459 10457 10463 10461 10454 10452 10454 10453 10446 10435 10426 10421 10419 10416 10412 10408 10404 10399 10396 10394 10391 10387 10384 10380 10375 10371 10366 10361 10355 10349 10344 10340 10334 10329 10323 10317 10312 10305 10299 10294 10287 10282 10276 10270 10264 10257 10251 10245 10238 10231 10224 10216 10209 10201 10191 10181 10171 10161
10458 10453 10453 10451 10439 10439 10453 10455 10444 10434 10434 10455 10477 10474 10466 10472 10475 10469 10463 10459 10454 10445 10441 10446 10450 10454 10460 10456 10445 10442 10446 10444 10439 10443 10446 10436 10425 10419 10413 10408 10407 10402 10397 10393 10389 10385 10382 10379 10375 10373 10370 10366 10361 10357 10352 10346 10340 10335 10330 10325 10320 10314 10309 10303 10297 10291 10286 10281 10275 10270 10264 10258 10252 10245 10239 10233 10226 10220 10213 10206 10199 10191 10181 10171 10161 10151
10446 10443 10439 10435 10426 10421 10429 10431 10419 10414 10429 10449 10455 10455 10459 10462 10456 10446 10442 10445 10443 10434 10431 10433 10434 10442 10447 10440 10429 10426 10426 10427 10432 10438 10433 10417 10404 10399 10397 10397 10395 10388 10383 10379 10374 10371 10368 10364 10361 10359 10355 10352 10347 10342 10337 10331 10325 10320 10315 10310 10305 10299 10294 10288 10283 10278 10273 10268 10262 10257 10251 10245 10239 10233 10227 10221 10215 10209 10202 10195 10188 10180 10171 10161 10150 10141
10434 10429 10423 10418 10413 10408 10408 10407 10399 10400 10415 10428 10436 10449 10452 10441 10433 10428 10423 10427 10431 10427 10422 10417 10417 10427 10430 10420 10414 10412 10407 10410 10422 10431 10423 10401 10385 10381 10383 10385 10382 10376 10372 10366 10360 10357 10353 10348 10347 10345 10341 10338 10332 10327 10322 10316 10310 10305 10300 10295 10289 10284 10279 10274 10270 10264 10259 10254 10249 10244 10239 10233 10227 10221 10215 10210 10203 10197 10191 10184 10177 10170 10161 10151 10140 10130
10417 10411 10406 10401 10397 10394 10389 10386 10384 10384 10394 10411 10428 10439 10435 10421 10416 10411 10400 10404 10419 10421 10409 10397 10398 10411 10411 10401 10398 10395 10391 10393 10406 10420 10413 10385 10369 10370 10370 10369 10368 10365 10359 10352 10347 10343 10338 10334 10333 10331 10327 10323 10317 10311 10306 10300 10295 10290 10285 10280 10275 10269 10265 10260 10255 10250 10245 10241 10236 10231 10226 10221 10215 10209 10203 10197 10192 10186 10180 10173 10166 10159 10151 10141 10131 10121
10401 10394 10391 10382 10377 10378 10373 10366 10367 10366 10375 10399 10418 10423 10417 10407 10402 10395 10378 10382 10408 10413 10391 10375 10381 10391 10390 10383 10378 10375 10374 10378 10390 10403 10396 10372 10361 10362 10357 10354 10355 10350 10344 10340 10335 10329 10324 10321 10319 10316 10312 10307 10301 10296 10290 10285 10281 10276 10271 10266 10260 10255 10251 10246 10241 10236 10232 10228 10224 10219 10214 10208 10203 10197 10190 10184 10180 10175 10169 10162 10155 10148 10140 10132 10123 10113
10384 10379 10376 10365 10356 10360 10358 10351 10350 10348 10358 10385 10402 10404 10398 10391 10388 10378 10359 10369 10399 10397 10369 10360 10366 10369 10367 10363 10357 10352 10355 10360 10369 10379 10376 10362 10354 10351 10345 10342 10340 10334 10330 10327 10321 10316 10312 10308 10305 10301 10296 10291 10285 10280 10275 10270 10266 10262 10257 10253 10247 10242 10238 10232 10227 10223 10219 10216 10212 10206 10201 10195 10190 10185 10178 10172 10167 10163 10158 10152 10145 10137 10129 10121 10113 10105
10367 10361 10358 10348 10340 10345 10344 10335 10333 10335 10348 10373 10387 10385 10378 10372 10367 10355 10349 10370 10389 10371 10351 10352 10354 10350 10350 10344 10335 10332 10334 10336 10342 10352 10355 10349 10342 10336 10331 10328 10323 10319 10316 10311 10305 10301 10296 10292 10288 10284 10279 10275 10270 10265 10261 10257 10253 10249 10245 10240 10234 10230 10225 10219 10214 10210 10206 10203 10198 10193 10187 10182 10176 10172 10166 10160 10155 10151 10146 10141 10134 10127 10119 10111 10104 10095
10348 10342 10339 10334 10331 10332 10328 10319 10317 10323 10342 10365 10373 10366 10357 10348 10342 10341 10351 10367 10364 10344 10339 10345 10341 10337 10336 10326 10317 10316 10314 10312 10317 10326 10331 10329 10324 10320 10315 10310 10306 10303 10298 10292 10288 10284 10278 10275 10272 10268 10264 10261 10257 10253 10250 10245 10241 10237 10232 10228 10223 10218 10213 10207 10202 10197 10192 10188 10184 10179 10173 10168 10163 10158 10153 10148 10143 10138 10134 10130 10124 10117 10110 10103 10095 10086
10329 10323 10321 10319 10319 10318 10314 10308 10303 10307 10333 10358 10356 10342 10335 10329 10329 10338 10347 10348 10338 10328 10328 10329 10327 10327 10321 10310 10304 10301 10298 10298 10300 10302 10305 10306 10304 10301 10296 10292 10289 10286 10282 10278 10273 10269 10266 10263 10260 10256 10253 10250 10246 10242 10239 10234 10230 10226 10220 10216 10212 10206 10200 10195 10189 10184 10179 10174 10170 10165 10159 10155 10150 10145 10141 10136 10131 10126 10122 10117 10112 10106 10100 10093 10086 10078
10308 10304 10303 10306 10311 10308 10298 10291 10287 10295 10325 10344 10332 10318 10319 10322 10326 10331 10329 10325 10325 10323 10318 10315 10315 10313 10304 10296 10292 10288 10288 10291 10288 10285 10286 10287 10286 10285 10280 10278 10276 10272 10269 10267 10262 10259 10257 10252 10249 10246 10242 10238 10234 10231 10227 10222 10218 10214 10208 10204 10199 10193 10188 10183 10176 10171 10166 10161 10156 10152 10146 10142 10137 10133 10128 10123 10118 10114 10110 10105 10100 10095 10089 10083 10076 10068
10283 10291 10296 10299 10301 10292 10276 10271 10278 10294 10313 10320 10310 10307 10311 10312 10315 10317 10310 10308 10314 10315 10309 10302 10300 10297 10289 10283 10280 10276 10277 10279 10276 10273 10273 10273 10273 10272 10267 10266 10265 10261 10258 10256 10252 10249 10246 10241 10238 10235 10230 10226 10222 10218 10214 10211 10205 10200 10196 10190 10186 10182 10176 10171 10164 10159 10153 10148 10143 10139 10134 10130 10125 10120 10116 10110 10105 10101 10097 10093 10088 10083 10078 10072 10066 10058
10266 10283 10289 10282 10274 10268 10263 10264 10273 10286 10297 10300 10298 10302 10303 10297 10298 10301 10298 10297 10300 10300 10295 10287 10282 10280 10277 10271 10266 10264 10262 10261 10260 10259 10258 10258 10258 10256 10253 10253 10251 10247 10245 10243 10240 10237 10234 10230 10227 10222 10217 10213 10209 10205 10202 10198 10192 10188 10184 10178 10174 10170 10164 10158 10153 10147 10141 10136 10131 10127 10122 10117 10112 10107 10102 10097 10092 10089 10084 10080 10077 10072 10066 10061 10054 10048
10254 10268 10270 10260 10253 10251 10251 10255 10265 10275 10284 10287 10286 10289 10291 10286 10285 10288 10288 10285 10283 10281 10277 10271 10267 10266 10264 10259 10254 10251 10248 10246 10244 10243 10244 10244 10242 10240 10240 10238 10235 10232 10230 10228 10225 10223 10220 10217 10213 10209 10204 10200 10196 10192 10189 10185 10180 10176 10171 10166 10162 10157 10152 10146 10140 10134 10129 10124 10119 10115 10109 10104 10100 10095 10090 10084 10080 10075 10072 10069 10065 10061 10056 10050 10044 10037
10241 10249 10248 10244 10241 10236 10233 10243 10260 10267 10270 10274 10273 10274 10279 10278 10274 10274 10270 10266 10266 10265 10261 10257 10254 10251 10249 10246 10243 10240 10237 10233 10229 10229 10231 10230 10228 10229 10228 10224 10221 10218 10215 10213 10212 10209 10206 10203 10199 10195 10191 10187 10183 10180 10176 10172 10168 10163 10158 10155 10150 10145 10140 10134 10128 10123 10119 10113 10108 10102 10096 10091 10087 10082 10077 10073 10067 10062 10059 10055 10053 10050 10045 10039 10033 10026
10226 10228 10226 10226 10228 10225 10225 10237 10250 10251 10253 10261 10261 10260 10266 10267 10263 10259 10251 10246 10248 10251 10248 10244 10241 10237 10234 10232 10230 10229 10224 10219 10216 10216 10216 10215 10216 10218 10215 10211 10208 10205 10202 10200 10199 10196 10193 10191 10186 10181 10177 10174 10170 10166 10163 10159 10155 10151 10147 10144 10139 10134 10129 10123 10117 10113 10108 10102 10097 10091 10085 10079 10074 10069 10065 10061 10056 10051 10046 10041 10037 10034 10031 10027 10022 10017
10213 10210 10209 10210 10211 10212 10219 10232 10239 10235 10237 10247 10250 10249 10252 10252 10247 10240 10233 10228 10229 10232 10232 10231 10227 10223 10220 10218 10215 10212 10207 10204 10206 10205 10202 10202 10204 10205 10202 10199 10196 10193 10192 10189 10186 10183 10181 10178 10174 10169 10165 10161 10157 10153 10150 10147 10144 10141 10138 10134 10128 10123 10117 10111 10106 10101 10096 10091 10086 10080 10074 10068 10062 10057 10052 10047 10044 10041 10036 10031 10025 10019 10015 10012 10009 10004
10200 10199 10199 10199 10196 10199 10210 10222 10224 10218 10219 10233 10242 10239 10235 10231 10225 10219 10215 10212 10213 10215 10216 10214 10211 10208 10203 10200 10198 10195 10191 10191 10194 10191 10189 10190 10191 10189 10188 10187 10184 10183 10182 10178 10174 10171 10169 10165 10162 10158 10153 10150 10147 10143 10139 10137 10133 10130 10127 10122 10116 10110 10104 10099 10094 10089 10084 10080 10075 10069 10064 10057 10052 10047 10041 10035 10031 10027 10023 10020 10016 10010 10004 9999 9994 9990
10182 10184 10187 10187 10186 10194 10204 10207 10202 10195 10201 10218 10229 10223 10215 10210 10204 10199 10200 10201 10200 10200 10199 10196 10193 10190 10185 10183 10183 10180 10177 10178 10179 10177 10178 10178 10176 10174 10173 10172 10172 10171 10169 10166 10162 10159 10155 10152 10149 10144 10140 10137 10135 10132 10129 10125 10122 10119 10115 10109 10103 10097 10092 10088 10083 10079 10074 10070 10064 10058 10053 10047 10041 10036 10030 10025 10020 10015 10009 10005 10001 9996 9993 9987 9981 9976